STARLINK-1496 (45780 NORAD) Tracking and Keplerian Element Data

This shows tracking and keplerian element data for the satellite.

Feedback or suggestion? Click here.




ElementValue
Catalog45780
NameSTARLINK-1496
Epoch Orbit428
Epoch Day185.50001157
Epoch Year2020
RAAN197.5392
Inclination52.9983
Eccentricity0.0001037
Argument of Perigee93.4878
Mean Anonmoly288.7538
Mean Motion15.63976286
Decay Rate-0.01105089
L11 45780U 20038BC 20185.50001157 -.01105089 00000-0 -12670-1 0 9995
L22 45780 52.9983 197.5392 0001037 93.4878 288.7538 15.63976286 4286

Live tracking and technical data element details for STARLINK-1496 (NORAD 45780). STARLINK-1496 can be tracked NOW for your location showing map with azimuth and elevation plus other details from your city location.

Track the satellite on the map from your city or location and see movement details for azimuth, elevation, latitude, longitude, range, height, and movement on the map or in text.







IsCatalogInMostPopularTable: catalog: 45780, numindb: 5
Update: records affected: 1



GetName: 45780 STARLINK-1496

Hit Count: updated at: Sat, 04 Jul 2020 01:52:04 GMT